BAW659 LGKF-EGLL

Flight info

Callsign BAW659
Flight time N/A
Altitude 36000
Route LATAN DCT XOLTA DCT IXONA DCT ROTAR DCT MOBDO/N0447F380 DCT SOTOV DCT KPT L608 KUNOD DCT KRH DCT LIRSU DCT ARCKY DCT BUB L608 LOGAN
Aircraft A320/M-SDE3FGHIRWY/LB1

Departure

Time 2026-04-29 15:53
Airport Kefallinia Airport (LGKF)

Arrival

Time N/A
Airport London Heathrow Airport (EGLL)
Time Latitude Longitude Altitude Speed Heading
2026-04-29 15:27 38.11911 20.50414 68 ft 0 kts 56°
2026-04-29 15:45 38.11911 20.50413 68 ft 1 kts 56°
2026-04-29 15:45 38.11903 20.50398 68 ft 3 kts 59°
2026-04-29 15:45 38.11893 20.50375 60 ft 3 kts 65°
2026-04-29 15:45 38.11885 20.50352 64 ft 3 kts 75°
2026-04-29 15:46 38.11882 20.50328 60 ft 3 kts 99°
2026-04-29 15:46 38.11887 20.50310 60 ft 2 kts 142°
2026-04-29 15:46 38.11893 20.50304 60 ft 0 kts 146°
2026-04-29 15:49 38.11867 20.50326 59 ft 15 kts 147°
2026-04-29 15:50 38.11766 20.50334 63 ft 19 kts 207°
2026-04-29 15:50 38.11656 20.50344 64 ft 17 kts 143°
2026-04-29 15:50 38.11516 20.50453 61 ft 26 kts 146°
2026-04-29 15:50 38.11358 20.50590 57 ft 29 kts 146°
2026-04-29 15:51 38.11204 20.50720 59 ft 20 kts 146°
2026-04-29 15:51 38.11127 20.50828 59 ft 15 kts 156°
2026-04-29 15:51 38.11117 20.50782 59 ft 8 kts 351°
2026-04-29 15:51 38.11158 20.50760 57 ft 0 kts 324°
2026-04-29 15:52 38.11250 20.50678 56 ft 47 kts 326°
2026-04-29 15:52 38.11681 20.50317 65 ft 105 kts 326°
2026-04-29 15:52 38.12424 20.49689 59 ft 150 kts 326°
2026-04-29 15:53 38.13311 20.48927 564 ft 149 kts 322°
2026-04-29 15:53 38.14158 20.48152 1110 ft 150 kts 322°
2026-04-29 15:53 38.15026 20.47351 1437 ft 163 kts 321°
2026-04-29 15:53 38.15997 20.46459 1657 ft 182 kts 323°
2026-04-29 15:54 38.17090 20.45460 1877 ft 206 kts 323°
2026-04-29 15:54 38.18284 20.44371 2438 ft 214 kts 323°
2026-04-29 15:54 38.19509 20.43259 3170 ft 218 kts 323°
2026-04-29 15:54 38.20737 20.42146 3909 ft 221 kts 323°
2026-04-29 15:55 38.21997 20.41008 4670 ft 223 kts 323°
2026-04-29 15:55 38.23274 20.39856 5426 ft 226 kts 323°
2026-04-29 15:55 38.24554 20.38698 6193 ft 227 kts 323°
2026-04-29 15:55 38.25755 20.37352 6689 ft 241 kts 304°
2026-04-29 15:56 38.26431 20.35306 7008 ft 263 kts 286°
2026-04-29 15:56 38.26939 20.33016 7618 ft 273 kts 286°
2026-04-29 15:56 38.27546 20.30713 8372 ft 277 kts 296°
2026-04-29 15:56 38.28653 20.28707 9145 ft 280 kts 314°
2026-04-29 15:57 38.30058 20.26970 9943 ft 282 kts 315°
2026-04-29 15:57 38.31480 20.25231 10651 ft 285 kts 315°
2026-04-29 15:57 38.32963 20.23404 10875 ft 308 kts 315°
2026-04-29 15:57 38.34545 20.21432 11131 ft 326 kts 315°
2026-04-29 15:58 38.36173 20.19387 11728 ft 331 kts 315°
2026-04-29 15:58 38.37823 20.17313 12401 ft 334 kts 315°
2026-04-29 15:58 38.39487 20.15223 13076 ft 337 kts 315°
2026-04-29 15:58 38.41161 20.13116 13746 ft 340 kts 314°
2026-04-29 15:59 38.42860 20.10974 14329 ft 344 kts 314°
2026-04-29 15:59 38.44570 20.08820 14897 ft 347 kts 314°
2026-04-29 15:59 38.46303 20.06638 15456 ft 351 kts 314°
2026-04-29 15:59 38.48021 20.04472 16019 ft 354 kts 314°
2026-04-29 16:00 38.49778 20.02254 16583 ft 357 kts 314°
2026-04-29 16:00 38.51549 20.00014 17166 ft 359 kts 314°
2026-04-29 16:00 38.53331 19.97758 17742 ft 362 kts 314°